Flag for Mexico Weather past 2 weeks in Mexico City, Federal District, Mexico

Now
63 °F

Passing clouds.


Feels Like: 63 °F
Forecast: 55 / 75 °F
Wind: 8 mph from North

Location: Mexico City / Licenci

Current Time: Mar 5, 2015 at 4:35:57 AM

Latest Report: Mar 5, 2015 at 3:45 AM


Visibility: 12 mi

Pressure: 30.27 "Hg

Humidity: 37%

Dew point: 36 °F

Location of Mexico CityLocation

Historic Weather in Mexico City — Graph

°F

Mexico City temperature yesterday

Maximum temperature yesterday: 79 °F (at 4:48 PM)
Minimum temperature yesterday: 54 °F (at 6:20 AM)
Average temperature yesterday: 66 °F

Past Weeks' High & Low Weather Summary

 TemperatureHumidityPressure
High82 °F (Feb 23, 1:49 PM)77% (Feb 21, 6:50 AM)30.44 "Hg (Feb 21, 6:50 AM)
Low48 °F (Feb 19, 6:45 AM)7% (Feb 23, 3:48 PM)29.53 "Hg (Feb 26, 2:49 PM)
Average64 °F41%30.16 "Hg
* Reported Feb 18 2:49 AM — Mar 5 2:52 AM, Mexico City, Weather by CustomWeather, © 2015

Note: Actual official high and low records may vary slightly from our data, if they occured in-between our weather recording intervals... More about our weather records

Advertising

Mexico City weather history for previous 24 hours

 ConditionsComfort  
Time TempWeatherWind HumidityBarometerVisibility
2:52 AM
Thu, Mar 5
63 °FPassing clouds.8 mph42%29.67 "Hg12 mi
1:53 AM63 °FPassing clouds.2 mph45%30.26 "Hg12 mi
12:52 AM64 °FPassing clouds.3 mph43%30.28 "Hg12 mi
10:45 PM
Wed, Mar 4
66 °FPassing clouds.8 mph40%30.28 "Hg10 mi
9:45 PM68 °FPassing clouds.5 mph38%30.27 "Hg10 mi
7:45 PM72 °FPassing clouds.8 mph36%30.19 "Hg10 mi
6:46 PM73 °FPassing clouds.14 mph33%30.14 "Hg8 mi
4:48 PM79 °FPassing clouds.12 mph21%30.09 "Hg7 mi
1:42 PM77 °FSunny.8 mph21%30.19 "Hg6 mi
12:42 PM75 °FSunny.5 mph25%30.22 "Hg6 mi
11:45 AM73 °FSunny.9 mph27%29.70 "Hg6 mi
10:45 AM70 °FSunny.5 mph33%30.28 "Hg6 mi
9:45 AM66 °FSunny.5 mph40%30.30 "Hg5 mi
9:21 AM64 °FSunny.3 mph40%30.30 "Hg6 mi
8:45 AM63 °FSunny.3 mph42%29.79 "Hg6 mi
8:21 AM61 °FSunny.5 mph48%30.28 "Hg6 mi
7:47 AM61 °FSunny.No wind45%30.27 "Hg8 mi
7:22 AM57 °FSunny.3 mph51%30.26 "Hg8 mi
6:20 AM54 °FClear.3 mph58%30.23 "Hg10 mi
5:47 AM57 °FClear.No wind51%29.70 "Hg10 mi
Weather by CustomWeather, © 2015

See weather overviewHow to use our weather pages